Location: Campestrin
(46.4667°N, 11.7167°E)
Time: 03:56:16
(UTC+00:00)

Resurs 01 Rocket - Pass Details

Date: 18 April 2021
Orbit: 634 x 644 km, 97.9° (Epoch: 16 May)

Event Time Altitude Azimuth Distance (km) Brightness Sun altitude
Exits shadow 19:12:45 15° 137° (SE) 1,727 3.2 -11.5°
Maximum altitude 19:16:08 43° 70° (ENE) 906 2.1 -12.0°
Drops below altitude 10° 19:20:22 10° 359° (N) 2,053 4.7 -12.6°
Sets 19:22:39 0° 353° (N) 2,968 5.7 -12.9°
